Weather History for Glens Falls, NY

Change the Weather History Date:

Wednesday, March 27, 2013

  Actual Average Record
Temperature  
Mean Temperature 36 °F 36 °F  
Max Temperature 49 °F 47 °F 74 °F (1998)
Min Temperature 23 °F 25 °F 2 °F (2014)
Degree Days  
Heating Degree Days 29 29  
Month to date heating degree days 882 932  
Since 1 July heating degree days 5983 6552  
Cooling Degree Days 0 0  
Month to date cooling degree days 0 0  
Year to date cooling degree days 0 0  
Moisture  
Dew Point 24 °F    
Average Humidity 61    
Maximum Humidity 88    
Minimum Humidity 34    
Precipitation  
Precipitation 0.00 in 0.10 in 1.61 in (1978)
Month to date precipitation 2.81 2.57  
Year to date precipitation 5.11 7.51  
Sea Level Pressure  
Sea Level Pressure 29.88 in    
Wind  
Wind Speed 5 mph (NW)    
Max Wind Speed 16 mph    
Max Gust Speed 20 mph    
Visibility 10 miles    
Events      
T = Trace of Precipitation, MM = Missing Value Source: NWS Daily Summary

Daily Weather History Graph

Daily Weather History Graph

Search for Another Location

Airport:

Trip Planner

Search our weather history database for the weather conditions in past years. The results will help you decide how hot, cold, wet, or windy it might be!

Date:

Astronomy

Mar. 27, 2013 Rise Set
Actual Time 6:44 AM EDT 7:15 PM EDT
Civil Twilight 6:16 AM EDT 7:44 PM EDT
Nautical Twilight 5:42 AM EDT 8:17 PM EDT
Astronomical Twilight 5:07 AM EDT 8:52 PM EDT
Moon 7:58 PM EDT (3/27) 6:32 AM EDT (3/27)
Length of Visible Light 13h 27m
Length of Day
12h 30m
Full, 100% of the Moon is Illuminated
Mar 27
Full
Apr 3
Last Quarter
Apr 10
New
Apr 18
First Quarter
Apr 25
Full

Hourly Weather History & Observations

Time (EDT) Temp. Windchill Dew Point Humidity Pressure Visibility Wind Dir Wind Speed Gust Speed Precip Events Conditions
12:53 AM 24.1 °F - 21.0 °F 88% 29.86 in 10.0 mi Calm Calm - N/A   Clear
1:53 AM 23.0 °F - 19.9 °F 88% 29.85 in 10.0 mi Calm Calm - N/A   Clear
2:53 AM 24.1 °F - 19.0 °F 81% 29.85 in 10.0 mi Calm Calm - N/A   Clear
3:53 AM 24.1 °F - 19.0 °F 81% 29.84 in 10.0 mi Calm Calm - N/A   Partly Cloudy
4:53 AM 27.0 °F - 21.9 °F 81% 29.84 in 10.0 mi Calm Calm - N/A   Overcast
5:53 AM 30.0 °F - 21.9 °F 72% 29.85 in 10.0 mi Calm Calm - N/A   Overcast
6:53 AM 28.9 °F - 21.9 °F 75% 29.86 in 10.0 mi Calm Calm - N/A   Overcast
7:53 AM 30.0 °F - 23.0 °F 75% 29.87 in 10.0 mi Calm Calm - N/A   Overcast
8:53 AM 32.0 °F - 24.1 °F 73% 29.88 in 10.0 mi Calm Calm - N/A   Overcast
9:53 AM 35.1 °F 31.0 °F 26.1 °F 70% 29.89 in 10.0 mi South 4.6 mph - N/A   Overcast
10:53 AM 37.9 °F 35.5 °F 26.1 °F 62% 29.88 in 10.0 mi Variable 3.5 mph - N/A   Overcast
11:53 AM 43.0 °F 41.3 °F 27.0 °F 53% 29.87 in 10.0 mi Variable 3.5 mph - N/A   Overcast
12:53 PM 46.9 °F - 26.1 °F 44% 29.85 in 10.0 mi Calm Calm - N/A   Scattered Clouds
1:53 PM 46.9 °F - 23.0 °F 39% 29.85 in 10.0 mi NNW 10.4 mph - N/A   Overcast
2:53 PM 48.0 °F - 24.1 °F 39% 29.85 in 10.0 mi NNW 12.7 mph 19.6 mph N/A   Overcast
3:53 PM 48.9 °F - 23.0 °F 36% 29.84 in 10.0 mi North 9.2 mph - N/A   Overcast
4:53 PM 48.0 °F - 21.0 °F 34% 29.85 in 10.0 mi NNW 10.4 mph 16.1 mph N/A   Overcast
5:53 PM 46.0 °F 41.0 °F 24.1 °F 42% 29.88 in 10.0 mi NW 10.4 mph - N/A   Partly Cloudy
6:53 PM 44.1 °F 39.5 °F 24.1 °F 45% 29.91 in 10.0 mi NNW 8.1 mph - N/A   Mostly Cloudy
7:53 PM 42.1 °F 37.1 °F 26.1 °F 53% 29.92 in 10.0 mi NW 8.1 mph - N/A   Overcast
8:53 PM 42.1 °F 36.6 °F 25.0 °F 51% 29.94 in 10.0 mi NW 9.2 mph - N/A   Overcast
9:53 PM 41.0 °F 36.4 °F 25.0 °F 53% 29.95 in 10.0 mi NW 6.9 mph - N/A   Partly Cloudy
10:53 PM 37.0 °F 32.4 °F 26.1 °F 65% 29.95 in 10.0 mi WNW 5.8 mph - N/A   Overcast
11:53 PM 36.0 °F 32.1 °F 26.1 °F 67% 29.95 in 10.0 mi NNW 4.6 mph - N/A   Overcast